Location: Vancouver
(49.2500°N, 123.1333°W)
Time: 15:17:04
(UTC-08:00)

Daily predictions for brighter satellites

Satellite Brightness Start Highest point End
(mag) Time Altitude Azimuth Time Altitude Azimuth Time Altitude Azimuth
In-Cosmos 22 4.1 17:17:37 10° S 17:22:55 89° E 17:28:20 10° NNE
Cosmos 1300 3.7 17:20:01 10° NNE 17:23:14 25° ENE 17:26:26 10° SE
Cosmos 2369 Rocket 2.3 17:18:04 10° NNW 17:23:46 87° ENE 17:29:28 10° SSE
NOSS 2-1 (C) 3.8 17:22:13 10° SSW 17:25:44 42° ESE 17:29:42 10° NE
NOSS 2-1 (D) 3.8 17:22:51 10° SSW 17:26:22 44° ESE 17:30:22 10° NE
Meteor 1-24 Rocket 4.0 17:22:05 10° SSW 17:27:50 82° WNW 17:33:50 10° N
CZ-4 R/B 1.6 17:23:50 10° SSE 17:27:57 55° ENE 17:32:08 10° N
IRAS Rocket 4.2 17:23:34 10° SSE 17:29:04 71° ENE 17:34:40 10° NNW
CORIOLIS 4.1 17:24:46 10° SSE 17:30:04 72° ENE 17:35:26 10° NNW
Geosat 4.3 17:25:40 10° NE 17:30:33 49° ESE 17:35:24 10° S
GEOS 3 Rocket 4.4 17:26:03 10° E 17:30:48 34° NNE 17:35:37 10° NNW
Cosmos 2219 Rocket 4.4 17:29:03 10° WNW 17:32:36 17° NW 17:36:10 10° N
Cosmos 1656 Rocket 4.2 17:28:05 10° NNW 17:33:07 36° NE 17:38:11 10° ESE
Cosmos 1484 Rocket 2.9 17:30:23 10° S 17:34:11 77° WSW 17:37:57 10° NNW
Nadezhda 1 Rocket 4.1 17:27:57 10° S 17:34:12 87° W 17:40:36 10° N
Cosmos 968 Rocket 3.5 17:29:57 10° NNW 17:35:04 59° ENE 17:40:07 10° SE
CSL-04 Rocket 3.9 17:32:05 10° SSE 17:37:39 81° WSW 17:43:12 10° NNW
Cosmos 1943 Rocket 2.1 17:32:55 10° NNW 17:38:35 79° ENE 17:44:09 10° SSE
ERS-2 3.5 17:35:53 10° ESE 17:38:35 19° ENE 17:41:17 10° NNE
CZ-2C R/B 4.3 17:36:07 10° NNE 17:40:36 40° E 17:44:59 10° SSE
ATLAS 2AS CENTAUR R/B 3.5 17:35:57 10° NW 17:43:54 68° SW 17:51:15 10° SSE
USA 161 2.9 17:42:09 10° N 17:44:14 28° WNW 17:46:09 10° SW
Okean 3 Rocket 4.2 17:40:33 10° SSE 17:44:41 36° E 17:48:49 10° NNE
NOAA 12 4.5 17:41:14 10° SE 17:46:05 41° ENE 17:51:00 10° N
Cosmos 2341 Rocket 4.0 17:41:56 10° N 17:48:14 84° E 17:54:32 10° S
SKYMED 2 4.3 17:45:16 10° NNE 17:49:13 33° E 17:53:08 10° SSE
Cosmos 1346 Rocket 4.0 17:48:22 10° NNE 17:51:26 21° ENE 17:54:27 10° ESE
Cosmos 1908 4.2 17:48:34 10° NNW 17:52:23 52° W 17:56:08 10° S
Meteor 1-28 Rocket 3.2 17:48:48 10° NNE 17:52:39 85° ESE 17:56:28 10° SSW
Cosmos 1315 Rocket 3.9 17:49:31 10° SE 17:52:40 23° E 17:55:29 12° NE
NOSS 2-1 (E) 3.3 17:50:51 10° SSW 17:54:35 72° SE 17:58:30 13° NE
Cosmos 2333 Rocket 4.5 17:52:33 10° WNW 17:55:49 15° NNW 17:59:05 10° N
SMAP 3.8 17:52:46 10° S 17:57:21 57° W 18:01:58 10° NNW
Tiangong 1 2.8 17:58:26 10° SW 18:00:18 18° S 18:02:07 10° SE
SL-24 R/B - RUBIN 2 3.6 17:56:30 10° NW 18:01:10 61° NE 18:05:29 10° SE
YAOGAN 1 2.5 17:57:21 10° SSE 18:01:40 86° E 18:06:03 10° NNW
Cosmos 1867 4.5 17:59:48 10° WSW 18:05:01 45° NW 18:10:17 10° NNE
FENGYUN 3A 3.6 18:00:09 10° SSE 18:05:25 63° ENE 18:10:45 10° N
Cosmos 1726 2.6 18:02:19 10° NNW 18:05:57 64° W 18:09:34 10° S
NOSS 3-4 (A) 3.8 17:59:45 10° NW 18:06:38 69° NE 18:14:02 10° SE
NOSS 3-4 (C) 3.8 17:59:51 10° NW 18:06:44 69° NE 18:14:09 10° SE
Envisat 4.3 18:06:09 17° ENE 18:06:51 18° ENE 18:10:09 10° NNE
KORONAS-FOTON 3.9 18:03:13 10° SSW 18:07:00 75° W 18:10:49 10° N
Cosmos 1151 Rocket 4.3 18:04:09 10° NNE 18:07:27 20° ENE 18:08:36 18° E
Lacrosse 4 Rocket 3.7 18:07:30 10° WNW 18:10:08 16° NW 18:12:45 10° N
Meteor 2-16 Rocket 4.5 18:04:04 10° N 18:10:13 88° W 18:16:21 10° S
H-2A R/B 3.5 18:07:28 10° SE 18:10:50 30° ENE 18:14:16 10° N
ATLAS 5 CENTAUR R/B 3.8 18:10:14 10° NW 18:13:53 19° N 18:17:23 11° NE
Cosmos 2181 Rocket 4.1 18:10:35 10° S 18:17:02 87° E 18:23:30 10° N
NOSS 3-3 (A) 4.0 18:10:55 10° SW 18:17:06 89° SE 18:23:03 14° NE
NOSS 3-3 (C) 4.0 18:11:01 10° SW 18:17:12 89° SE 18:23:09 14° NE
Cosmos 2221 3.3 18:14:24 10° NNW 18:18:41 55° W 18:22:57 10° S
SL-16 R/B 4.1 18:15:12 10° W 18:19:47 24° NW 18:24:25 10° NNE
BREEZE-M DEB 4.4 18:17:20 10° W 18:20:19 77° SSW 18:22:41 22° ESE
Meteor 1-21 Rocket 4.4 18:14:41 10° SSW 18:20:36 83° WNW 18:26:35 10° N
FengYun 1-2 T 4.5 18:15:31 10° SE 18:20:51 46° ENE 18:26:11 10° N
Cosmos 1328 4.0 18:17:40 10° SSE 18:21:31 46° E 18:24:52 13° NNE
Cosmos 1455 3.3 18:18:30 10° NNE 18:21:01 24° NE 18:21:01 24° NE
Cosmos 1400 Rocket 2.9 18:18:44 10° SSW 18:22:47 84° W 18:26:57 10° N
Cosmos 1515 Rocket 4.1 18:26:40 10° N 18:30:41 34° ENE 18:33:09 19° SE
Cosmos 1943 3.5 18:26:34 10° SW 18:32:10 69° WNW 18:37:41 11° NNE
EO 1 Del DPAF 3.3 18:30:34 21° NNE 18:32:54 54° ESE 18:36:39 10° S
SL-8 Rocket 4.2 18:26:45 10° NNW 18:32:54 72° W 18:39:05 10° S
Meteor 2-2 Rocket 4.2 18:27:41 10° N 18:33:31 82° E 18:39:11 10° SSE
Cosmos 1408 Rocket 3.5 18:31:42 10° S 18:35:54 55° E 18:39:05 17° NNE
Cosmos 2218 Rocket 4.1 18:29:58 10° NNW 18:36:11 80° W 18:42:19 10° S
COSMO-SKYMED 1 2.6 18:33:03 10° NNE 18:37:25 85° WNW 18:41:46 10° SSW
Cosmos 2058 4.4 18:37:56 10° SSE 18:39:49 22° SE 18:39:49 22° SE
ALOS 2.8 18:37:37 10° S 18:42:14 62° W 18:46:54 10° NNW
SPOT 3 Rocket 3.6 18:37:06 10° SSE 18:42:15 79° WSW 18:47:27 10° NNW
Cosmos 1697 Rocket 4.2 18:38:36 10° N 18:42:02 18° NNE 18:42:02 18° NNE
Landsat 4 3.6 18:40:26 15° NNE 18:43:30 84° WNW 18:47:14 10° SSW
Cosmos 2228 Rocket 3.3 18:39:40 10° N 18:44:09 50° ENE 18:48:36 10° SSE
Cosmos 909 Rocket 4.1 18:39:38 10° NW 18:46:52 66° NE 18:51:13 21° SE
Cosmos 1703 3.9 18:45:48 10° SSE 18:48:42 38° SE 18:48:42 38° SE
Cosmos 2151 4.4 18:46:21 10° SSE 18:48:15 23° SE 18:48:15 23° SE
Cosmos 1777 Rocket 4.1 18:46:23 10° NNW 18:51:38 79° WSW 18:56:53 10° SSE
ERBS 3.4 18:50:42 10° NW 18:53:17 33° N 18:53:17 33° N
USA 81 4.3 18:49:15 10° SSE 18:54:13 44° E 18:56:05 32° NE
SJ-6B 4.5 18:56:48 20° N 18:56:48 20° N 18:58:08 10° N
Cosmos 1626 1.9 18:51:23 10° S 18:55:05 79° E 18:55:47 56° NNE
USA 215 3.8 18:52:26 28° NE 18:55:28 45° N 19:01:37 10° WNW
Cosmos 1076 Rocket 4.5 18:51:33 10° SSW 18:55:47 48° WNW 19:00:03 10° N
Cosmos 1743 Rocket 4.1 18:57:52 10° S 19:00:56 39° SE 19:00:56 39° SE
Cosmos 1328 Rocket 3.6 19:00:14 10° NNW 19:04:39 80° W 19:08:59 10° S
Cosmos 1241 Rocket 4.4 19:01:37 10° NW 19:07:52 88° SW 19:12:09 22° SE
GEOS 3 Rocket 3.8 19:04:33 19° SSE 19:08:30 75° SW 19:13:56 10° NW
Meteor 2-15 4.5 19:05:29 10° SSE 19:11:22 51° E 19:12:54 42° NE
ERS-2 3.5 19:08:31 10° S 19:12:00 40° W 19:15:31 10° NNW
Cosmos 2098 Rocket 3.8 19:10:51 10° NNW 19:15:41 72° W 19:21:48 10° S
Cosmos 1898 Rocket 4.2 19:15:12 10° NNW 19:19:03 38° NNE 19:19:03 38° NNE
Cosmos 1821 Rocket 3.8 19:14:53 10° N 19:21:03 75° E 19:27:14 10° SSE
Cosmos 1535 Rocket 4.3 19:15:18 10° N 19:21:28 65° ENE 19:24:18 33° SSE
SL-16 R/B 4.4 19:22:31 10° N 19:23:16 11° NNE 19:23:16 11° NNE
Cosmos 1346 Rocket 4.2 19:24:20 10° NNW 19:27:58 37° W 19:31:33 10° SSW
Cosmos 1315 Rocket 4.5 19:25:33 10° SW 19:29:06 32° WNW 19:31:16 19° NNW
Cosmos 44 3.3 19:25:56 10° SW 19:29:34 63° SW 19:29:34 63° SW
Nadezhda 3 Rocket 4.0 19:29:40 10° S 19:36:01 85° W 19:42:27 10° N
Cosmos 1980 Rocket 4.0 19:35:37 10° NNW 19:37:45 19° N 19:37:45 19° N
Envisat 3.4 19:46:20 56° NNW 19:46:20 56° NNW 19:50:23 10° NNW
Cosmos 1151 Rocket 3.9 19:41:03 10° NNW 19:45:18 48° W 19:45:39 47° WSW
SME Rocket 4.5 19:54:38 67° E 19:55:20 70° ENE 20:05:25 10° NNW
Cosmos 44 Rocket 4.2 19:51:49 10° SW 19:55:03 43° WSW 19:55:03 43° WSW
Cosmos 1455 4.5 19:54:08 10° NNW 19:56:08 22° WNW 19:56:08 22° WNW
Thor Agena Rocket 4.2 20:00:19 49° SW 20:00:19 49° SW 20:04:11 10° SSW
COSMOS 2406 3.6 19:53:33 10° SSW 19:58:03 57° SW 19:58:03 57° SW
ATLAS 5 CENTAUR R/B 4.0 19:56:13 10° NNW 19:58:56 20° N 19:58:56 20° N
Resurs 01 Rocket 4.4 20:06:00 11° NNW 20:06:00 11° NNW 20:06:08 10° NNW
Cosmos 1934 Rocket 4.1 19:56:04 10° NNW 20:02:25 77° W 20:03:25 64° SSW
USA 215 4.0 20:39:46 46° NNW 20:39:46 46° NNW 20:44:23 10° WNW
